* Astronomy

Members Login
Username 
 
Password 
    Remember Me  
Post Info TOPIC: Asteroid 2011 EV29


L

Posts: 131433
Date:
Asteroid 2011 EV29
Permalink  
 


Orbital elements:
2011 EV29 Earth MOID = 0.0082 AU
Epoch 2011 Feb. 8.0 TT = JDT 2455600.5 MPC
M 18.66330 (2000.0) P Q
n 0.65277412 Peri. 115.97671 -0.01874974 -0.99863286
a 1.3161158 Node 334.95230 +0.87116964 +0.00763035
e 0.3781141 Incl. 6.61810 +0.49062399 -0.05171260
P 1.51 H 24.1 G 0.15 U 8

MPEC 2011 - E50


__________________
Page 1 of 1  sorted by
 
Quick Reply

Please log in to post quick replies.



Create your own FREE Forum
Report Abuse
Powered by ActiveBoard